Regional Weather Roundup
Issued by NWS Charleston, WV

Home | Current Version | Previous Version | Text Only | Print | Product List | Glossary Off
Versions: 1 2 3 4 5 6 7 8 9 10 11 12 13 14 15 16 17 18 19 20 21 22 23 24 25 26 27

000
ASUS41 KRLX 230510
RWRRLX
West Virginia Regional Weather Roundup
National Weather Service Charleston WV
100 AM EDT WED APR 23 2014

Note: "fair" indicates few or no clouds below 12,000 feet with no
significant weather and/or obstructions to visibility.

WVZ003-230600-
Northern Panhandle of West Virginia

CITY           SKY/WX    TMP DP  RH WIND       PRES   REMARKS
WHEELING       MOCLDY    45  34  65 NW9       29.84R
$$

WVZ009-230600-
Northwest West Virginia

CITY           SKY/WX    TMP DP  RH WIND       PRES   REMARKS
PARKERSBURG    MOCLDY    50  33  52 NW7       29.89R
$$

WVZ006-230600-
Western West Virginia

CITY           SKY/WX    TMP DP  RH WIND       PRES   REMARKS
HUNTINGTON     CLEAR     49  33  54 NW8       29.92R
$$

WVZ015-230600-
West Central West Virginia

CITY           SKY/WX    TMP DP  RH WIND       PRES   REMARKS
CHARLESTON     CLEAR     53  33  46 NW13G18   29.88R
$$

WVZ031-230600-
North Central West Virginia

CITY           SKY/WX    TMP DP  RH WIND       PRES   REMARKS
CLARKSBURG     CLOUDY    50  34  54 NW13      29.83R
MORGANTOWN     CLOUDY    50  36  58 NW3       29.83R
$$

WVZ035-042-045-230600-
South Central West Virginia

CITY           SKY/WX    TMP DP  RH WIND       PRES   REMARKS
BECKLEY        CLEAR     51  28  41 N14       29.85R
BLUEFIELD      CLEAR     56  31  38 NW12G21   29.84R
LEWISBURG      CLEAR     52  23  33 NW13      29.81R
$$

WVZ047-230600-
Northern Mountains of West Virginia

CITY           SKY/WX    TMP DP  RH WIND       PRES   REMARKS
ELKINS         CLOUDY    50  40  68 NW10      29.80S
$$

WVZ052-230600-
Eastern Panhandle of West Virginia

CITY           SKY/WX    TMP DP  RH WIND       PRES   REMARKS
MARTINSBURG    CLOUDY    52  36  54 NW10      29.74R
PETERSBURG     CLOUDY    58  44  59 NW8G20    29.77R
$$



USA.gov is the U.S. government's official web portal to all federal, state and local government web resources and services.